Terminal Aerodrome Forecast
Issued by NWS

Home | Current Version | Previous Version | Graphics & Text | Print | Product List | Glossary On
Versions: 1 2 3 4 5 6 7 8 9 10 11 12
000
FTUS45 KGGW 281137
TAFSDY
TAF
KSDY 281137Z 2812/2912 20005KT P6SM SCT130
     FM281800 28009KT P6SM SCT110
     FM290100 32008KT P6SM SCT140=

USA.gov is the U.S. government's official web portal to all federal, state and local government web resources and services.